www.srh.weather.gov   
NOAA logo - Click to go to the NOAA homepage   NWS logo
Hourly Weather Roundup
Enter Your "City, ST" or zip code   
Current Version              Previous Version:    01  02  03  04  05  06  07  08  09  10  11  12  13  14  15  16  17  18  19  20  21  22  23  24  25  26  27  28  29  30  
   31  32  33  34  35  36  37  38  39  40  41  42  43  44  45  46  47  48  49  50  51  52  53  54  55  56  57  58  59  60  
[Printable]
631
NZUS43 KILX 222210
HWRILX

AREA WEATHER ROUNDUP
NATIONAL WEATHER SERVICE, LINCOLN IL
500 PM CDT WED OCT 22 2014


CITY           SKY/WX    TMP DP  RH WIND       PRES   REMARKS
BLOOMINGTON    SUNNY     59  38  45 SE7       30.27S
CHAMPAIGN      SUNNY     59  36  42 E3        30.26F
DECATUR        SUNNY     59  38  45 E7        30.25F
FLORA          SUNNY     60  37  43 NE3       30.25F
GALESBURG      SUNNY     58  38  46 SE6       30.22F HAZE
JACKSONVILLE   SUNNY     63  41  43 SE8       30.22F
LACON          SUNNY     59  35  40 SE7       30.25S
LAWRENCEVILLE  SUNNY     61  40  45 NE6       30.25S
LITCHFIELD     SUNNY     60  38  43 E7        30.23F
$$


CITY           SKY/WX    TMP DP  RH WIND       PRES   REMARKS
LINCOLN        SUNNY     62  36  37 SE5       30.23F
MACOMB         SUNNY     61  38  43 SE10      30.24F
MATTOON        SUNNY     59  37  44 NE8       30.24F
MT CARMEL AP   SUNNY     63  41  45 NE6       30.24F
OLNEY-NOBLE AP SUNNY     59  39  47 NE5       30.25S
PARIS          SUNNY     59  40  49 E3        30.26F
PEORIA         SUNNY     61  36  39 SE7       30.24F
PONTIAC        SUNNY     58  32  37 SE5       30.27S
RANTOUL        SUNNY     60  35  40 E5        30.25F
ROBINSON       SUNNY     62  42  46 N3        30.26S
SPRINGFIELD    SUNNY     62  39  42 E5        30.25F
TAYLORVILLE    SUNNY     59  37  44 E6        30.24F
$$

...REGIONAL REPORTS...


CITY           SKY/WX    TMP DP  RH WIND       PRES   REMARKS
CHICAGO O`HARE CLEAR     51  37  58 E10       30.28F
KANKAKEE       CLEAR     56  38  50 NE3       30.27F
MOLINE         SUNNY     60  38  43 SE10      30.21F
MOUNT VERNON   SUNNY     61  41  48 NE5       30.25S
PITTSFIELD     SUNNY     63  42  45 E8        30.21F
QUINCY         SUNNY     61  39  44 SE12      30.20F
ROCKFORD       SUNNY     58  35  42 S9        30.26F
$$


CITY           SKY/WX    TMP DP  RH WIND       PRES   REMARKS
BURLINGTON     SUNNY     61  41  47 SE9       30.19F
CEDAR RAPIDS   SUNNY     59  40  49 SE14      30.18F
DES MOINES     PTSUNNY   65  46  50 S18       30.10F
KIRKSVILLE     SUNNY     63  45  51 SE10      30.17F
OTTUMWA        NOT AVBL
ST LOUIS       SUNNY     63  41  44 E6        30.23F
$$


CITY           SKY/WX    TMP DP  RH WIND       PRES   REMARKS
TERRE HAUTE    SUNNY     58  41  53 E5        30.25F
EVANSVILLE     SUNNY     62  41  46 N5        30.24S
INDIANAPOLIS   CLEAR     56  40  55 NE6       30.25F
LAFAYETTE      CLEAR     56  38  50 NE5       30.27S
MADISON        MOSUNNY   58  35  42 S10       30.24F
MILWAUKEE      PTCLDY    49  39  68 SE10      30.29F
$$





National Weather Service
Disclaimer
Last Modified: August 31, 2005
Privacy Policy